GAOFEN DUOMO (GFDM) (45856 NORAD) Tracking and Keplerian Element Data

This shows tracking and keplerian element data for the satellite.

Feedback or suggestion? Click here.




ElementValue
Catalog45856
NameGAOFEN DUOMO (GFDM)
Epoch Orbit591
Epoch Day225.22331057
Epoch Year2020
RAAN297.9692
Inclination98.0143
Eccentricity0.0015793
Argument of Perigee137.1912
Mean Anonmoly223.0556
Mean Motion14.7668795
Decay Rate5.8E-07
L11 45856U 20042A 20225.22331057 .00000058 00000-0 15735-4 0 9998
L22 45856 98.0143 297.9692 0015793 137.1912 223.0556 14.76687950 5919

Live tracking and technical data element details for GAOFEN DUOMO (GFDM) (NORAD 45856). GAOFEN DUOMO (GFDM) can be tracked NOW for your location showing map with azimuth and elevation plus other details from your city location.

Track the satellite on the map from your city or location and see movement details for azimuth, elevation, latitude, longitude, range, height, and movement on the map or in text.







IsCatalogInMostPopularTable: catalog: 45856, numindb: 3
Update: records affected: 1



GetName: 45856 GAOFEN DUOMO (GFDM)

Hit Count: updated at: Fri, 14 Aug 2020 04:34:51 GMT